STARLINK-1713, 46360

Orbit data source: Space-Track

STARLINK-1713, 46360 is a payload satellite owned by SpaceX/Seattle (US) in LEO that was launched on Thu, 03 Sep 2020 UTC via an FALCON 9 launch vehicle from the Air Force Eastern Test Range (AFETR). Payloads include a variety of satellites, spacecraft, and rockets equipped with specific instruments for various scientific and technological missions. These include communications satellites like Starlink; space stations such as the ISS; scientific satellites like the Hubble; Earth observation satellites from companies like Planet Labs, Umbra, and HawkEye 360; GPS; miniature CubeSats for education and research; and military/defense satellites.

Loading next visibility...
STARLINK-1713 details
Identifier
46360, 2020-062AM
Orbit
LEO
Last TLE update18 hours ago
Origin
Flag of USSpaceX/Seattle (US)
ManufacturerSpaceX/Seattle
MissionOperational Commercial Communications
Bus & MotorSTARLINK, Unknown motor
Mass260 kg wet, ~248 kg dry
Launch date (UTC)
2020-09-03 (4 years ago)
Launch vehicle
FALCON 9
Launch site
Air Force Eastern Test Range (AFETR)
Object type
Payload
Rocket body
Debris
Shape & HBRBox + 1 Pan, 8.86 m
Radar Cross Section13.562 m², Large (>1 m²)

Expand to show TLE details & history

TLE from 18 hours ago
0 STARLINK-1713
1 46360U 20062AM  24360.67963869 -.00001223  00000-0 -63213-4 0  9997
2 46360  53.0561 142.4102 0001400  92.2706 267.8444 15.06388556238955
Epoch: 2024-12-25T16:18Z
Definitive object data (Epoch: 2024-12-25T16:18:40.782Z)
Latitude0.00002°
Longitude163.07037°
Altitude548.163 km
Speed7.589 km/s
True Right ascension09h 29m 38s
True Declination0° 00' 00"
Sunlit
Object was in full shadow at TLE epoch
Visualization TLE readout
Latitude52.14691°
Longitude-126.04616°
Altitude552.621 km
Speed7.592 km/s
Apparent Right ascension18h 15m 12s
Apparent Declination14° 35' 01"
Sunlit
Object is in daylight
Visualization observer readout
Local Sidereal Time09:32:03
Azimuth50.746° ENE
Elevation-18.864°
Doppler factor1
Orbital elements
Apogee altitude548.487 km
Perigee altitude546.548 km
Semi-major axis6,925.654 km
Eccentricity0.00014
Inclination53.0561°
RAAN142.4102°
Arg. of periapsis92.2706°
True anomaly267.82837°
Mean anomaly267.8444°
Eccentric anomaly267.83638°
Mean motion3.76575 °/min
BSTAR-0.000063213
Orbital period95.6 mins
Loading maneuver chart data...
Loading historical data...
Loading historical data...
Loading historical data...
Loading historical data...
Loading historical data...
Loading historical data...
Loading historical data...

STARLINK-1713 Visibility forecast

Observer location: undefined°, undefined

Span
Click to sort rows by Start time (UTC) header in descending order
Start Az.
Max El. time (UTC)
Max El. Az.
Max El.
End time (UTC)
End Az.
7 mins2024-12-26 11:33:55.256Z193.417° SSW2024-12-26 11:36:55.256Z146.08° SSE26.943°2024-12-26 11:40:55.256Z69.24° E
5 mins2024-12-26 13:14:55.256Z275.108° WNW2024-12-26 13:16:55.256Z331.024° NNW32.058°2024-12-26 13:19:55.256Z33.436° NE
6 mins2024-12-26 18:15:55.256Z330.147° NNW2024-12-26 18:18:55.256Z39.467° NE30.491°2024-12-26 18:21:55.256Z95.674° ESE
5 mins2024-12-26 19:55:55.256Z281.084° WNW2024-12-26 19:57:55.256Z236.425° WSW29.291°2024-12-26 20:00:55.256Z169.471° S
|